Weather in Agarak

Armenia     38°51′54″N   46°11′46″E
temp.,
°C
wind,
m/s
gust,
m/s
humid.,
%
clouds,
%
prec.,
mm/h
press.,
hPa
HPBL,
m
7 march, sun
sun701:00+3ssw33446 0.0 101932
04:00+2sw23455 0.0 101729
07:00+1wsw225218 0.0 101825
10:00+6wsw234228 0.0 1017428
13:00+9wnw34330 0.0 10161312
16:00+10wnw23310 0.0 10141670
19:00+7ene11519 0.0 1016102
22:00+4ene227021 0.0 1018107
8 march, mon
mon801:00+2ene22860 0.0 1018106
04:000ene228910 0.0 1018125
07:00−1ene228873 0.0 1018198
10:00+2ene227469 0.0 1017321
13:00+6e13552 0.0 1013753
16:00+9nnw14421 0.0 10091003
19:00+5ne116237 0.1 1010179
22:00+3nne227742 0.4 1012149
9 march, tue
tue901:00+1n118782 0.1 1013197
04:00+1nnw009165 0.3 101392
07:000w11903 0.0 101429
10:00+5wnw23582 0.0 1014526
13:00+8wnw344543 0.0 10131301
16:00+9wnw453850 0.0 10111718
19:00+5nne235896 0.0 1013321
22:00+2ne127548 0.0 1016192
10 march, wed
wed1001:00+1ne12830 0.0 1018134
04:000ne11846 0.0 101844
07:00−1nnw118111 0.0 102028
10:00+3nw225613 0.0 1021471
13:00+7wnw35350 0.0 10191148
16:00+8nw34280 0.0 10171458
19:00+5ne22470 0.0 1017158
22:00+2ne115934 0.0 1017132
11 march, thu
thu1101:00+2ne016578 0.0 101649
04:00+2wsw016870 0.0 101437
07:00+1ssw127550 0.0 101334
10:00+6sw245975 0.0 1012637
13:00+8ssw3458100 0.1 1008892
16:00+4e1190100 3.9 1004272
19:00+2ne3396100 3.1 1001163
22:00+1ene2295100 4.8 1000163